| time (UTC) | temp F | wind direction | speed MPH | gust MPH | rain 1hr in | rain 24hr in | rain mn in | humidity % | barometer mb |
| 20260508061542 | 38 | 0 | 0.0 | 0.0 | 0.00 | 0.00 | 0.00 | 87 | 1013.6 |
| 20260508060043 | 38 | 0 | 0.0 | 0.0 | 0.00 | 0.00 | 0.00 | 87 | 1013.6 |
| 20260508054602 | 38 | 0 | 0.0 | 0.0 | 0.00 | 0.00 | 0.00 | 88 | 1013.7 |
| 20260508053041 | 38 | 0 | 0.0 | 0.0 | 0.00 | 0.00 | 0.00 | 87 | 1014.0 |
| 20260508051539 | 38 | 0 | 0.0 | 0.0 | 0.00 | 0.00 | 0.00 | 86 | 1014.1 |
| 20260508050043 | 39 | 0 | 0.0 | 0.0 | 0.00 | 0.00 | 0.00 | 85 | 1014.2 |
| 20260508044553 | 39 | 0 | 0.0 | 0.0 | 0.00 | 0.00 | 0.00 | 84 | 1014.1 |
| 20260508043039 | 39 | 0 | 0.0 | 0.0 | 0.00 | 0.00 | 0.00 | 83 | 1013.9 |
| 20260508041548 | 40 | 0 | 0.0 | 0.0 | 0.00 | 0.00 | 0.00 | 82 | 1013.9 |
| 20260508040052 | 41 | 0 | 0.0 | 0.0 | 0.00 | 0.00 | 0.00 | 81 | 1013.8 |
| 20260508034542 | 41 | 0 | 0.0 | 0.0 | 0.00 | 0.00 | 0.00 | 78 | 1013.8 |
| 20260508033040 | 42 | 0 | 0.0 | 0.0 | 0.00 | 0.00 | 0.00 | 77 | 1013.9 |
| 20260508031553 | 43 | 0 | 0.0 | 0.0 | 0.00 | 0.00 | 0.00 | 75 | 1014.0 |
| 20260508030051 | 44 | 0 | 0.0 | 0.0 | 0.00 | 0.00 | 0.00 | 73 | 1014.0 |
| 20260508024536 | 45 | 0 | 0.0 | 0.0 | 0.00 | 0.00 | 0.00 | 71 | 1014.0 |
| 20260508023046 | 46 | 0 | 0.0 | 0.0 | 0.00 | 0.00 | 0.00 | 69 | 1013.9 |
| 20260508021539 | 47 | 0 | 0.0 | 0.0 | 0.00 | 0.00 | 0.00 | 67 | 1013.8 |
| 20260508020038 | 48 | 0 | 0.0 | 0.0 | 0.00 | 0.00 | 0.00 | 65 | 1013.7 |
| 20260508014539 | 48 | 0 | 0.0 | 0.0 | 0.00 | 0.00 | 0.00 | 63 | 1013.5 |
| 20260508013037 | 49 | 0 | 0.0 | 0.0 | 0.00 | 0.00 | 0.00 | 60 | 1013.3 |
| 20260508011544 | 50 | 0 | 0.0 | 0.0 | 0.00 | 0.00 | 0.00 | 56 | 1013.1 |
| 20260508010042 | 51 | 0 | 0.0 | 2.0 | 0.00 | 0.00 | 0.00 | 54 | 1012.7 |
| 20260508004540 | 51 | 0 | 0.0 | 2.0 | 0.00 | 0.00 | 0.00 | 53 | 1012.6 |
| 20260508003036 | 52 | 167 | 0.0 | 3.0 | 0.00 | 0.00 | 0.00 | 54 | 1012.3 |
| 20260508001537 | 53 | 91 | 0.0 | 6.0 | 0.00 | 0.00 | 0.00 | 50 | 1012.0 |
| 20260508000042 | 54 | 262 | 0.0 | 5.0 | 0.00 | 0.00 | 0.00 | 50 | 1011.7 |
| 20260507234540 | 54 | 68 | 1.0 | 7.0 | 0.00 | 0.00 | 0.00 | 49 | 1011.7 |
| 20260507233040 | 55 | 0 | 0.0 | 2.0 | 0.00 | 0.00 | 0.00 | 52 | 1011.5 |
| 20260507231544 | 55 | 124 | 1.0 | 8.0 | 0.00 | 0.00 | 0.00 | 50 | 1011.3 |
| 20260507230041 | 56 | 0 | 0.0 | 5.0 | 0.00 | 0.00 | 0.00 | 49 | 1011.1 |
| 20260507224554 | 56 | 29 | 1.0 | 7.0 | 0.00 | 0.00 | 0.00 | 47 | 1011.1 |
| 20260507223044 | 57 | 0 | 1.0 | 7.0 | 0.00 | 0.00 | 0.00 | 45 | 1010.9 |
| 20260507221540 | 58 | 94 | 0.0 | 3.0 | 0.00 | 0.00 | 0.00 | 46 | 1010.8 |
| 20260507220042 | 59 | 160 | 0.0 | 4.0 | 0.00 | 0.00 | 0.00 | 44 | 1010.6 |
| 20260507214541 | 60 | 266 | 0.0 | 6.0 | 0.00 | 0.00 | 0.00 | 45 | 1010.4 |
| 20260507213047 | 61 | 56 | 1.0 | 5.0 | 0.00 | 0.00 | 0.00 | 42 | 1010.2 |
| 20260507211539 | 61 | 247 | 1.0 | 5.0 | 0.00 | 0.00 | 0.00 | 41 | 1010.4 |
| 20260507210106 | 59 | 0 | 0.0 | 4.0 | 0.00 | 0.00 | 0.00 | 44 | 1010.2 |
| 20260507204537 | 60 | 125 | 0.0 | 5.0 | 0.00 | 0.00 | 0.00 | 43 | 1010.2 |
| 20260507203035 | 61 | 233 | 1.0 | 4.0 | 0.00 | 0.00 | 0.00 | 41 | 1010.1 |
| 20260507201539 | 62 | 0 | 0.0 | 5.0 | 0.00 | 0.00 | 0.00 | 43 | 1010.2 |
| 20260507200052 | 62 | 70 | 1.0 | 7.0 | 0.00 | 0.00 | 0.00 | 40 | 1010.4 |
| 20260507194537 | 64 | 0 | 1.0 | 7.0 | 0.00 | 0.00 | 0.00 | 41 | 1010.6 |
| 20260507193102 | 64 | 253 | 0.0 | 5.0 | 0.00 | 0.00 | 0.00 | 44 | 1010.6 |
| 20260507191550 | 62 | 0 | 1.0 | 7.0 | 0.00 | 0.00 | 0.00 | 46 | 1010.7 |
| 20260507190041 | 60 | 86 | 0.0 | 5.0 | 0.00 | 0.00 | 0.00 | 46 | 1010.8 |
| 20260507184539 | 62 | 229 | 0.0 | 6.0 | 0.00 | 0.00 | 0.00 | 43 | 1010.8 |
| 20260507183040 | 62 | 0 | 0.0 | 4.0 | 0.00 | 0.00 | 0.00 | 47 | 1010.9 |
| 20260507181538 | 61 | 0 | 0.0 | 5.0 | 0.00 | 0.00 | 0.00 | 49 | 1010.8 |
| 20260507180033 | 63 | 0 | 0.0 | 8.0 | 0.00 | 0.00 | 0.00 | 47 | 1011.0 |
| 20260507174541 | 65 | 281 | 1.0 | 4.0 | 0.00 | 0.00 | 0.00 | 46 | 1011.1 |
| 20260507173045 | 65 | 123 | 0.0 | 6.0 | 0.00 | 0.00 | 0.00 | 49 | 1011.2 |
| 20260507171539 | 63 | 85 | 0.0 | 7.0 | 0.00 | 0.00 | 0.00 | 50 | 1011.4 |
| 20260507170040 | 62 | 0 | 0.0 | 9.0 | 0.00 | 0.00 | 0.00 | 52 | 1011.7 |
| 20260507164538 | 61 | 143 | 1.0 | 6.0 | 0.00 | 0.00 | 0.00 | 50 | 1011.8 |
| 20260507163041 | 59 | 58 | 0.0 | 3.0 | 0.00 | 0.00 | 0.00 | 53 | 1011.9 |
| 20260507161544 | 59 | 37 | 0.0 | 4.0 | 0.00 | 0.00 | 0.00 | 54 | 1011.9 |
| 20260507160059 | 58 | 71 | 0.0 | 3.0 | 0.00 | 0.00 | 0.00 | 51 | 1012.3 |
| 20260507154538 | 57 | 0 | 0.0 | 7.0 | 0.00 | 0.00 | 0.00 | 58 | 1012.4 |
| 20260507153038 | 57 | 254 | 0.0 | 6.0 | 0.00 | 0.00 | 0.00 | 56 | 1012.5 |
| 20260507151536 | 57 | 44 | 0.0 | 4.0 | 0.00 | 0.00 | 0.00 | 55 | 1012.7 |
| 20260507150043 | 57 | 4 | 0.0 | 6.0 | 0.00 | 0.00 | 0.00 | 55 | 1012.9 |
| 20260507144549 | 57 | 0 | 0.0 | 3.0 | 0.00 | 0.00 | 0.00 | 59 | 1013.2 |
| 20260507143038 | 57 | 15 | 0.0 | 3.0 | 0.00 | 0.00 | 0.00 | 64 | 1013.4 |
| 20260507141540 | 55 | 54 | 1.0 | 5.0 | 0.00 | 0.00 | 0.00 | 61 | 1013.4 |
| 20260507140037 | 54 | 250 | 0.0 | 2.0 | 0.00 | 0.00 | 0.00 | 65 | 1013.6 |
| 20260507134549 | 53 | 0 | 0.0 | 3.0 | 0.00 | 0.01 | 0.00 | 67 | 1013.8 |
| 20260507133043 | 52 | 0 | 0.0 | 3.0 | 0.00 | 0.01 | 0.00 | 70 | 1013.8 |
| 20260507131539 | 51 | 0 | 0.0 | 3.0 | 0.00 | 0.01 | 0.00 | 71 | 1013.9 |
| 20260507130042 | 49 | 0 | 0.0 | 2.0 | 0.00 | 0.01 | 0.00 | 76 | 1013.9 |
| 20260507124538 | 47 | 0 | 0.0 | 2.0 | 0.00 | 0.02 | 0.00 | 81 | 1013.9 |
| 20260507123046 | 43 | 0 | 0.0 | 3.0 | 0.00 | 0.02 | 0.00 | 94 | 1013.8 |
| 20260507121540 | 41 | 0 | 0.0 | 0.0 | 0.00 | 0.02 | 0.00 | 95 | 1014.0 |
| 20260507120040 | 39 | 0 | 0.0 | 0.0 | 0.00 | 0.02 | 0.00 | 94 | 1013.9 |
| 20260507114543 | 37 | 0 | 0.0 | 0.0 | 0.00 | 0.09 | 0.00 | 94 | 1013.9 |
| 20260507113039 | 36 | 0 | 0.0 | 0.0 | 0.00 | 0.09 | 0.00 | 94 | 1013.8 |
| 20260507111548 | 36 | 0 | 0.0 | 0.0 | 0.00 | 0.09 | 0.00 | 94 | 1013.7 |
| 20260507110036 | 35 | 0 | 0.0 | 0.0 | 0.00 | 0.09 | 0.00 | 93 | 1013.7 |
| 20260507104536 | 35 | 0 | 0.0 | 0.0 | 0.00 | 0.21 | 0.00 | 93 | 1013.6 |
| 20260507103041 | 35 | 0 | 0.0 | 0.0 | 0.00 | 0.21 | 0.00 | 93 | 1013.4 |
| 20260507101538 | 36 | 0 | 0.0 | 0.0 | 0.00 | 0.21 | 0.00 | 93 | 1013.3 |
| 20260507100037 | 36 | 0 | 0.0 | 0.0 | 0.00 | 0.21 | 0.00 | 93 | 1013.2 |
| 20260507094544 | 36 | 0 | 0.0 | 0.0 | 0.00 | 0.33 | 0.00 | 92 | 1013.2 |
| 20260507093045 | 36 | 0 | 0.0 | 0.0 | 0.00 | 0.33 | 0.00 | 92 | 1013.2 |
| 20260507091541 | 37 | 0 | 0.0 | 0.0 | 0.00 | 0.33 | 0.00 | 92 | 1013.4 |
| 20260507090039 | 37 | 0 | 0.0 | 0.0 | 0.00 | 0.33 | 0.00 | 91 | 1013.3 |
| 20260507084541 | 38 | 0 | 0.0 | 0.0 | 0.00 | 0.43 | 0.00 | 91 | 1013.2 |
| 20260507083039 | 38 | 0 | 0.0 | 0.0 | 0.00 | 0.43 | 0.00 | 90 | 1013.3 |
| 20260507081538 | 39 | 0 | 0.0 | 0.0 | 0.00 | 0.43 | 0.00 | 90 | 1013.2 |
| 20260507080040 | 39 | 0 | 0.0 | 0.0 | 0.00 | 0.43 | 0.00 | 89 | 1013.3 |
| 20260507074540 | 40 | 0 | 0.0 | 0.0 | 0.00 | 0.43 | 0.00 | 88 | 1013.4 |
| 20260507073036 | 41 | 0 | 0.0 | 0.0 | 0.00 | 0.43 | 0.00 | 87 | 1013.4 |
| 20260507071536 | 41 | 0 | 0.0 | 0.0 | 0.00 | 0.43 | 0.00 | 87 | 1013.4 |
| 20260507070048 | 41 | 0 | 0.0 | 0.0 | 0.00 | 0.43 | 0.00 | 85 | 1013.6 |
| 20260507064546 | 42 | 0 | 0.0 | 0.0 | 0.00 | 0.47 | 0.00 | 83 | 1013.6 |
| 20260507063038 | 43 | 0 | 0.0 | 0.0 | 0.00 | 0.47 | 0.00 | 81 | 1013.6 |